| time (UTC) | temp F | wind direction | speed MPH | gust MPH | rain 1hr in | rain 24hr in | rain mn in | humidity % | barometer mb |
| 20260901045548 | 82 | 175 | 9.0 | 14.0 | 0.00 | 0.01 | 0.01 | 45 | 1016.4 |
| 20260901045046 | 83 | 154 | 10.0 | 14.0 | 0.00 | 0.01 | 0.01 | 45 | 1016.2 |
| 20260901044607 | 83 | 168 | 9.0 | 14.0 | 0.00 | 0.01 | 0.01 | 44 | 1016.3 |
| 20260901044049 | 83 | 171 | 10.0 | 15.0 | 0.00 | 0.01 | 0.01 | 44 | 1016.3 |
| 20260901043549 | 83 | 175 | 10.0 | 15.0 | 0.00 | 0.01 | 0.01 | 44 | 1016.3 |
| 20260901043109 | 84 | 181 | 10.0 | 16.0 | 0.00 | 0.01 | 0.01 | 43 | 1016.3 |
| 20260901042546 | 84 | 192 | 11.0 | 16.0 | 0.00 | 0.01 | 0.01 | 43 | 1016.4 |
| 20260901042049 | 84 | 183 | 9.0 | 16.0 | 0.00 | 0.01 | 0.01 | 43 | 1016.3 |
| 20260901041621 | 84 | 191 | 8.0 | 16.0 | 0.00 | 0.01 | 0.01 | 43 | 1016.2 |
| 20260901041049 | 84 | 174 | 10.0 | 16.0 | 0.00 | 0.01 | 0.01 | 43 | 1016.1 |
| 20260901040549 | 84 | 193 | 9.0 | 14.0 | 0.00 | 0.01 | 0.01 | 43 | 1016.1 |
| 20260901040138 | 84 | 163 | 9.0 | 14.0 | 0.00 | 0.01 | 0.01 | 43 | 1016.0 |
| 20260901035549 | 84 | 163 | 9.0 | 14.0 | 0.00 | 0.01 | 0.01 | 43 | 1016.0 |
| 20260901035050 | 84 | 186 | 8.0 | 11.0 | 0.00 | 0.01 | 0.01 | 44 | 1016.0 |
| 20260901034611 | 84 | 172 | 7.0 | 11.0 | 0.00 | 0.01 | 0.01 | 43 | 1016.0 |
| 20260901034051 | 84 | 180 | 7.0 | 11.0 | 0.00 | 0.01 | 0.01 | 43 | 1016.1 |
| 20260901033551 | 85 | 160 | 8.0 | 12.0 | 0.00 | 0.01 | 0.01 | 42 | 1016.2 |
| 20260901033103 | 85 | 174 | 9.0 | 12.0 | 0.00 | 0.01 | 0.01 | 42 | 1016.1 |
| 20260901032551 | 85 | 189 | 9.0 | 14.0 | 0.00 | 0.01 | 0.01 | 42 | 1016.0 |
| 20260901032049 | 86 | 165 | 9.0 | 14.0 | 0.00 | 0.01 | 0.01 | 41 | 1016.0 |
| 20260901031559 | 86 | 197 | 10.0 | 14.0 | 0.00 | 0.01 | 0.01 | 41 | 1015.9 |
| 20260901031048 | 86 | 156 | 10.0 | 15.0 | 0.00 | 0.01 | 0.01 | 41 | 1015.8 |
| 20260901030547 | 86 | 193 | 9.0 | 15.0 | 0.00 | 0.01 | 0.01 | 41 | 1015.8 |
| 20260901030111 | 86 | 174 | 9.0 | 13.0 | 0.00 | 0.01 | 0.01 | 40 | 1015.7 |
| 20260901025548 | 86 | 162 | 8.0 | 12.0 | 0.00 | 0.01 | 0.01 | 40 | 1015.5 |
| 20260901025053 | 87 | 166 | 9.0 | 12.0 | 0.00 | 0.01 | 0.01 | 40 | 1015.4 |
| 20260901024606 | 87 | 162 | 8.0 | 13.0 | 0.00 | 0.01 | 0.01 | 39 | 1015.4 |
| 20260901024048 | 87 | 178 | 9.0 | 13.0 | 0.00 | 0.01 | 0.01 | 39 | 1015.3 |
| 20260901023548 | 87 | 160 | 9.0 | 13.0 | 0.00 | 0.01 | 0.01 | 39 | 1015.3 |
| 20260901023107 | 87 | 171 | 8.0 | 11.0 | 0.00 | 0.01 | 0.01 | 39 | 1015.2 |
| 20260901022548 | 87 | 162 | 7.0 | 11.0 | 0.00 | 0.01 | 0.01 | 39 | 1015.1 |
| 20260901022048 | 88 | 148 | 6.0 | 11.0 | 0.00 | 0.01 | 0.01 | 38 | 1015.0 |
| 20260901021603 | 88 | 161 | 8.0 | 13.0 | 0.00 | 0.01 | 0.01 | 38 | 1014.9 |
| 20260901021048 | 88 | 149 | 8.0 | 13.0 | 0.00 | 0.01 | 0.01 | 38 | 1014.8 |
| 20260901020548 | 88 | 156 | 9.0 | 12.0 | 0.00 | 0.01 | 0.01 | 38 | 1014.6 |
| 20260901020105 | 88 | 134 | 8.0 | 11.0 | 0.00 | 0.01 | 0.01 | 38 | 1014.5 |
| 20260901015548 | 88 | 155 | 7.0 | 10.0 | 0.00 | 0.01 | 0.01 | 38 | 1014.3 |
| 20260901015048 | 89 | 148 | 7.0 | 9.0 | 0.00 | 0.01 | 0.01 | 38 | 1014.3 |
| 20260901014606 | 89 | 152 | 6.0 | 9.0 | 0.00 | 0.01 | 0.01 | 37 | 1014.2 |
| 20260901014048 | 89 | 157 | 5.0 | 7.0 | 0.00 | 0.01 | 0.01 | 38 | 1014.0 |
| 20260901013547 | 89 | 136 | 5.0 | 6.0 | 0.00 | 0.01 | 0.01 | 38 | 1014.1 |
| 20260901013104 | 88 | 137 | 4.0 | 6.0 | 0.00 | 0.01 | 0.01 | 38 | 1014.0 |
| 20260901012547 | 89 | 150 | 3.0 | 5.0 | 0.00 | 0.01 | 0.01 | 37 | 1013.9 |
| 20260901012049 | 90 | 154 | 2.0 | 4.0 | 0.00 | 0.01 | 0.01 | 36 | 1013.9 |
| 20260901011603 | 90 | 0 | 0.0 | 4.0 | 0.00 | 0.01 | 0.01 | 35 | 1013.8 |
| 20260901011047 | 91 | 0 | 0.0 | 4.0 | 0.00 | 0.01 | 0.01 | 34 | 1013.7 |
| 20260901010548 | 92 | 167 | 2.0 | 4.0 | 0.00 | 0.01 | 0.01 | 34 | 1013.5 |
| 20260901010116 | 93 | 161 | 1.0 | 4.0 | 0.00 | 0.01 | 0.01 | 33 | 1013.6 |
| 20260901005549 | 94 | 163 | 2.0 | 7.0 | 0.00 | 0.01 | 0.01 | 32 | 1013.5 |
| 20260901005049 | 95 | 171 | 3.0 | 7.0 | 0.00 | 0.01 | 0.01 | 31 | 1013.4 |
| 20260901004609 | 96 | 157 | 5.0 | 7.0 | 0.00 | 0.01 | 0.01 | 30 | 1013.5 |
| 20260901004049 | 98 | 158 | 4.0 | 6.0 | 0.00 | 0.01 | 0.01 | 29 | 1013.5 |
| 20260901003548 | 99 | 180 | 4.0 | 5.0 | 0.00 | 0.01 | 0.01 | 28 | 1013.5 |
| 20260901003107 | 99 | 130 | 2.0 | 6.0 | 0.00 | 0.01 | 0.01 | 27 | 1013.6 |
| 20260901002548 | 99 | 0 | 1.0 | 6.0 | 0.00 | 0.01 | 0.01 | 28 | 1013.6 |
| 20260901002049 | 99 | 0 | 4.0 | 19.0 | 0.00 | 0.01 | 0.01 | 28 | 1013.6 |
| 20260901001604 | 99 | 201 | 5.0 | 19.0 | 0.00 | 0.01 | 0.01 | 28 | 1013.6 |
| 20260901001051 | 99 | 188 | 10.0 | 17.0 | 0.00 | 0.01 | 0.01 | 27 | 1013.4 |
| 20260901000549 | 100 | 131 | 6.0 | 13.0 | 0.00 | 0.01 | 0.01 | 26 | 1013.5 |
| 20260901000111 | 100 | 139 | 5.0 | 13.0 | 0.00 | 0.01 | 0.01 | 26 | 1013.5 |
| 20260831235548 | 100 | 146 | 7.0 | 11.0 | 0.00 | 0.01 | 0.01 | 26 | 1013.4 |
| 20260831235048 | 100 | 144 | 5.0 | 10.0 | 0.00 | 0.01 | 0.01 | 26 | 1013.4 |
| 20260831234606 | 100 | 222 | 4.0 | 9.0 | 0.00 | 0.01 | 0.01 | 27 | 1013.5 |
| 20260831234049 | 100 | 238 | 4.0 | 10.0 | 0.00 | 0.01 | 0.01 | 27 | 1013.6 |
| 20260831233548 | 101 | 217 | 6.0 | 10.0 | 0.00 | 0.01 | 0.01 | 27 | 1013.5 |
| 20260831233118 | 101 | 180 | 6.0 | 8.0 | 0.00 | 0.01 | 0.01 | 26 | 1013.4 |
| 20260831232549 | 101 | 119 | 0.0 | 12.0 | 0.00 | 0.01 | 0.01 | 27 | 1013.3 |
| 20260831232048 | 101 | 245 | 6.0 | 12.0 | 0.00 | 0.01 | 0.01 | 26 | 1013.4 |
| 20260831231559 | 101 | 137 | 6.0 | 11.0 | 0.00 | 0.01 | 0.01 | 26 | 1013.4 |
| 20260831231049 | 101 | 165 | 5.0 | 10.0 | 0.00 | 0.01 | 0.01 | 27 | 1013.4 |
| 20260831230549 | 100 | 264 | 7.0 | 13.0 | 0.00 | 0.01 | 0.01 | 27 | 1013.4 |
| 20260831230112 | 101 | 251 | 8.0 | 13.0 | 0.00 | 0.01 | 0.01 | 27 | 1013.4 |
| 20260831225548 | 100 | 266 | 3.0 | 13.0 | 0.00 | 0.01 | 0.01 | 28 | 1013.5 |
| 20260831225048 | 100 | 246 | 5.0 | 16.0 | 0.00 | 0.01 | 0.01 | 27 | 1013.5 |
| 20260831224602 | 101 | 217 | 9.0 | 16.0 | 0.00 | 0.01 | 0.01 | 27 | 1013.6 |
| 20260831224048 | 101 | 211 | 9.0 | 16.0 | 0.00 | 0.01 | 0.01 | 27 | 1013.6 |
| 20260831223550 | 101 | 208 | 9.0 | 15.0 | 0.00 | 0.01 | 0.01 | 27 | 1013.6 |
| 20260831223108 | 101 | 249 | 6.0 | 15.0 | 0.00 | 0.01 | 0.01 | 28 | 1013.7 |
| 20260831222549 | 101 | 246 | 7.0 | 15.0 | 0.00 | 0.01 | 0.01 | 27 | 1013.7 |
| 20260831222049 | 101 | 146 | 5.0 | 13.0 | 0.00 | 0.01 | 0.01 | 28 | 1013.7 |
| 20260831221608 | 101 | 224 | 4.0 | 11.0 | 0.00 | 0.01 | 0.01 | 27 | 1013.8 |
| 20260831221047 | 101 | 181 | 6.0 | 11.0 | 0.00 | 0.01 | 0.01 | 28 | 1013.9 |
| 20260831220548 | 101 | 233 | 5.0 | 19.0 | 0.00 | 0.01 | 0.01 | 28 | 1013.9 |
| 20260831220106 | 101 | 195 | 10.0 | 19.0 | 0.00 | 0.01 | 0.01 | 26 | 1014.0 |
| 20260831215548 | 100 | 207 | 13.0 | 18.0 | 0.00 | 0.01 | 0.01 | 27 | 1013.9 |
| 20260831215048 | 100 | 271 | 4.0 | 14.0 | 0.00 | 0.01 | 0.01 | 29 | 1014.1 |
| 20260831214610 | 100 | 207 | 4.0 | 14.0 | 0.00 | 0.01 | 0.01 | 29 | 1014.2 |
| 20260831214048 | 100 | 188 | 9.0 | 14.0 | 0.00 | 0.01 | 0.01 | 29 | 1014.3 |
| 20260831213547 | 100 | 223 | 7.0 | 13.0 | 0.00 | 0.01 | 0.01 | 29 | 1014.3 |
| 20260831213109 | 99 | 191 | 6.0 | 16.0 | 0.00 | 0.01 | 0.01 | 30 | 1014.4 |
| 20260831212550 | 99 | 165 | 8.0 | 16.0 | 0.00 | 0.01 | 0.01 | 29 | 1014.5 |
| 20260831212048 | 99 | 245 | 10.0 | 18.0 | 0.00 | 0.01 | 0.01 | 30 | 1014.5 |
| 20260831211607 | 99 | 191 | 9.0 | 18.0 | 0.00 | 0.01 | 0.01 | 30 | 1014.6 |
| 20260831211049 | 99 | 209 | 8.0 | 15.0 | 0.00 | 0.01 | 0.01 | 29 | 1014.6 |
| 20260831210550 | 99 | 230 | 8.0 | 18.0 | 0.00 | 0.01 | 0.01 | 30 | 1014.7 |
| 20260831205550 | 99 | 229 | 6.0 | 16.0 | 0.00 | 0.01 | 0.01 | 30 | 1014.8 |
| 20260831205049 | 99 | 209 | 10.0 | 16.0 | 0.00 | 0.01 | 0.01 | 30 | 1014.9 |
| 20260831204609 | 99 | 213 | 9.0 | 16.0 | 0.00 | 0.01 | 0.01 | 30 | 1015.0 |
| 20260831204049 | 98 | 250 | 9.0 | 16.0 | 0.00 | 0.01 | 0.01 | 31 | 1015.1 |
| 20260831203548 | 98 | 233 | 7.0 | 15.0 | 0.00 | 0.01 | 0.01 | 31 | 1014.9 |
| 20260831203115 | 98 | 226 | 10.0 | 15.0 | 0.00 | 0.01 | 0.01 | 31 | 1015.1 |
| 20260831202548 | 98 | 231 | 8.0 | 15.0 | 0.00 | 0.01 | 0.01 | 32 | 1015.3 |
| 20260831202052 | 98 | 263 | 5.0 | 17.0 | 0.00 | 0.01 | 0.01 | 32 | 1015.3 |
| 20260831201607 | 98 | 206 | 10.0 | 17.0 | 0.00 | 0.01 | 0.01 | 32 | 1015.4 |
| 20260831201049 | 98 | 239 | 7.0 | 15.0 | 0.00 | 0.01 | 0.01 | 33 | 1015.4 |
| 20260831200550 | 98 | 225 | 6.0 | 15.0 | 0.00 | 0.01 | 0.01 | 32 | 1015.4 |
| 20260831200106 | 98 | 190 | 8.0 | 16.0 | 0.00 | 0.01 | 0.01 | 32 | 1015.6 |
| 20260831195548 | 98 | 262 | 6.0 | 17.0 | 0.00 | 0.01 | 0.01 | 33 | 1015.6 |
| 20260831195048 | 98 | 250 | 8.0 | 17.0 | 0.00 | 0.01 | 0.01 | 32 | 1015.7 |
| 20260831194638 | 98 | 245 | 6.0 | 11.0 | 0.00 | 0.01 | 0.01 | 33 | 1015.7 |
| 20260831194049 | 97 | 192 | 6.0 | 18.0 | 0.00 | 0.01 | 0.01 | 33 | 1015.8 |
| 20260831193550 | 97 | 267 | 11.0 | 18.0 | 0.00 | 0.01 | 0.01 | 33 | 1015.7 |
| 20260831193106 | 97 | 256 | 5.0 | 14.0 | 0.00 | 0.01 | 0.01 | 33 | 1015.8 |
| 20260831192549 | 97 | 250 | 7.0 | 14.0 | 0.00 | 0.01 | 0.01 | 33 | 1015.9 |
| 20260831192049 | 97 | 216 | 6.0 | 14.0 | 0.00 | 0.01 | 0.01 | 33 | 1015.9 |
| 20260831191559 | 97 | 231 | 5.0 | 18.0 | 0.00 | 0.01 | 0.01 | 34 | 1016.0 |
| 20260831191052 | 97 | 234 | 11.0 | 18.0 | 0.00 | 0.01 | 0.01 | 32 | 1016.0 |
| 20260831190549 | 97 | 257 | 5.0 | 13.0 | 0.00 | 0.01 | 0.01 | 34 | 1016.1 |
| 20260831190107 | 96 | 252 | 7.0 | 15.0 | 0.00 | 0.01 | 0.01 | 35 | 1016.1 |
| 20260831185549 | 96 | 221 | 9.0 | 15.0 | 0.00 | 0.01 | 0.01 | 34 | 1016.2 |
| 20260831185050 | 96 | 226 | 10.0 | 22.0 | 0.00 | 0.01 | 0.01 | 35 | 1016.1 |
| 20260831184606 | 96 | 234 | 5.0 | 22.0 | 0.00 | 0.01 | 0.01 | 36 | 1016.2 |
| 20260831184053 | 96 | 194 | 11.0 | 22.0 | 0.00 | 0.01 | 0.01 | 35 | 1016.2 |
| 20260831183549 | 96 | 229 | 11.0 | 16.0 | 0.00 | 0.01 | 0.01 | 36 | 1016.2 |
| 20260831183110 | 95 | 179 | 9.0 | 14.0 | 0.00 | 0.01 | 0.01 | 36 | 1016.2 |
| 20260831182552 | 95 | 241 | 10.0 | 17.0 | 0.00 | 0.01 | 0.01 | 37 | 1016.3 |
| 20260831182055 | 95 | 210 | 7.0 | 17.0 | 0.00 | 0.01 | 0.01 | 37 | 1016.4 |
| 20260831181607 | 95 | 224 | 9.0 | 17.0 | 0.00 | 0.01 | 0.01 | 37 | 1016.4 |
| 20260831181049 | 94 | 210 | 5.0 | 17.0 | 0.00 | 0.01 | 0.01 | 39 | 1016.4 |
| 20260831180546 | 94 | 226 | 12.0 | 17.0 | 0.00 | 0.01 | 0.01 | 37 | 1016.6 |
| 20260831180119 | 94 | 245 | 7.0 | 15.0 | 0.00 | 0.01 | 0.01 | 37 | 1016.6 |
| 20260831175549 | 95 | 172 | 9.0 | 15.0 | 0.00 | 0.01 | 0.01 | 36 | 1016.7 |
| 20260831175052 | 95 | 196 | 9.0 | 16.0 | 0.00 | 0.01 | 0.01 | 36 | 1016.7 |
| 20260831174606 | 95 | 214 | 9.0 | 16.0 | 0.00 | 0.01 | 0.01 | 37 | 1016.7 |
| 20260831174049 | 94 | 205 | 9.0 | 14.0 | 0.00 | 0.01 | 0.01 | 36 | 1016.7 |
| 20260831173548 | 94 | 233 | 7.0 | 16.0 | 0.00 | 0.01 | 0.01 | 34 | 1016.7 |
| 20260831173102 | 94 | 198 | 9.0 | 18.0 | 0.00 | 0.01 | 0.01 | 34 | 1016.7 |
| 20260831172550 | 94 | 202 | 11.0 | 18.0 | 0.00 | 0.01 | 0.01 | 34 | 1016.7 |
| 20260831172048 | 94 | 206 | 8.0 | 18.0 | 0.00 | 0.01 | 0.01 | 35 | 1016.7 |
| 20260831171603 | 93 | 200 | 11.0 | 18.0 | 0.00 | 0.01 | 0.01 | 36 | 1016.8 |
| 20260831171046 | 93 | 181 | 9.0 | 16.0 | 0.00 | 0.01 | 0.01 | 36 | 1016.8 |
| 20260831170547 | 92 | 181 | 12.0 | 16.0 | 0.00 | 0.01 | 0.01 | 37 | 1016.7 |
| 20260831170107 | 92 | 207 | 11.0 | 16.0 | 0.00 | 0.01 | 0.01 | 37 | 1016.8 |
| 20260831165549 | 92 | 195 | 9.0 | 17.0 | 0.00 | 0.01 | 0.01 | 37 | 1016.9 |
| 20260831165046 | 92 | 171 | 11.0 | 17.0 | 0.00 | 0.01 | 0.01 | 37 | 1016.9 |
| 20260831164604 | 92 | 151 | 11.0 | 20.0 | 0.00 | 0.01 | 0.01 | 37 | 1016.9 |
| 20260831164050 | 91 | 172 | 11.0 | 20.0 | 0.00 | 0.01 | 0.01 | 38 | 1016.8 |
| 20260831163546 | 91 | 197 | 9.0 | 15.0 | 0.00 | 0.01 | 0.01 | 38 | 1016.8 |
| 20260831163106 | 90 | 182 | 9.0 | 17.0 | 0.00 | 0.01 | 0.01 | 39 | 1016.9 |
| 20260831162548 | 90 | 205 | 10.0 | 17.0 | 0.00 | 0.01 | 0.01 | 39 | 1016.7 |
| 20260831162047 | 89 | 136 | 10.0 | 18.0 | 0.00 | 0.01 | 0.01 | 40 | 1016.7 |
| 20260831161606 | 89 | 192 | 11.0 | 18.0 | 0.00 | 0.01 | 0.01 | 40 | 1016.7 |
| 20260831161050 | 89 | 160 | 10.0 | 16.0 | 0.00 | 0.01 | 0.01 | 40 | 1016.7 |
| 20260831160551 | 89 | 148 | 11.0 | 16.0 | 0.00 | 0.01 | 0.01 | 40 | 1016.8 |
| 20260831160109 | 88 | 184 | 9.0 | 14.0 | 0.00 | 0.01 | 0.01 | 42 | 1016.7 |
| 20260831155547 | 88 | 181 | 7.0 | 12.0 | 0.00 | 0.01 | 0.01 | 43 | 1016.5 |
| 20260831155047 | 87 | 192 | 7.0 | 12.0 | 0.00 | 0.01 | 0.01 | 43 | 1016.6 |
| 20260831154633 | 87 | 186 | 6.0 | 11.0 | 0.00 | 0.01 | 0.01 | 44 | 1016.5 |
| 20260831154050 | 86 | 179 | 6.0 | 11.0 | 0.00 | 0.01 | 0.01 | 45 | 1016.5 |
| 20260831153548 | 85 | 195 | 7.0 | 11.0 | 0.00 | 0.01 | 0.01 | 46 | 1016.4 |
| 20260831153104 | 85 | 186 | 8.0 | 13.0 | 0.00 | 0.01 | 0.01 | 47 | 1016.5 |
| 20260831152549 | 84 | 221 | 8.0 | 13.0 | 0.00 | 0.01 | 0.01 | 47 | 1016.4 |
| 20260831152049 | 84 | 184 | 9.0 | 14.0 | 0.00 | 0.01 | 0.01 | 47 | 1016.4 |
| 20260831151617 | 84 | 172 | 9.0 | 14.0 | 0.00 | 0.01 | 0.01 | 48 | 1016.2 |
| 20260831151049 | 83 | 181 | 9.0 | 15.0 | 0.00 | 0.01 | 0.01 | 48 | 1016.2 |
| 20260831150548 | 83 | 151 | 10.0 | 15.0 | 0.00 | 0.01 | 0.01 | 49 | 1016.0 |
| 20260831150107 | 82 | 158 | 10.0 | 17.0 | 0.00 | 0.01 | 0.01 | 50 | 1015.9 |
| 20260831145547 | 81 | 151 | 11.0 | 18.0 | 0.00 | 0.01 | 0.01 | 51 | 1016.0 |
| 20260831145047 | 82 | 145 | 13.0 | 18.0 | 0.00 | 0.01 | 0.01 | 50 | 1015.9 |
| 20260831144604 | 81 | 156 | 11.0 | 17.0 | 0.00 | 0.01 | 0.01 | 52 | 1015.9 |
| 20260831144049 | 80 | 148 | 12.0 | 18.0 | 0.00 | 0.01 | 0.01 | 52 | 1015.8 |
| 20260831143548 | 79 | 155 | 12.0 | 18.0 | 0.00 | 0.01 | 0.01 | 55 | 1015.8 |
| 20260831143115 | 79 | 158 | 11.0 | 16.0 | 0.00 | 0.01 | 0.01 | 55 | 1015.8 |
| 20260831142550 | 78 | 166 | 9.0 | 16.0 | 0.00 | 0.01 | 0.01 | 56 | 1016.0 |
| 20260831142049 | 78 | 148 | 11.0 | 16.0 | 0.00 | 0.01 | 0.01 | 56 | 1016.0 |
| 20260831141608 | 78 | 138 | 10.0 | 13.0 | 0.00 | 0.01 | 0.01 | 57 | 1016.0 |
| 20260831141052 | 77 | 134 | 9.0 | 13.0 | 0.00 | 0.01 | 0.01 | 58 | 1016.1 |
| 20260831140552 | 77 | 132 | 8.0 | 12.0 | 0.00 | 0.01 | 0.01 | 58 | 1016.1 |
| 20260831140106 | 77 | 134 | 9.0 | 12.0 | 0.00 | 0.01 | 0.01 | 58 | 1016.2 |
| 20260831135549 | 76 | 122 | 8.0 | 11.0 | 0.00 | 0.01 | 0.01 | 59 | 1016.2 |
| 20260831135053 | 76 | 122 | 8.0 | 10.0 | 0.00 | 0.01 | 0.01 | 59 | 1016.2 |
| 20260831134606 | 76 | 125 | 7.0 | 10.0 | 0.00 | 0.01 | 0.01 | 60 | 1016.2 |
| 20260831134049 | 76 | 139 | 6.0 | 10.0 | 0.00 | 0.01 | 0.01 | 62 | 1016.2 |
| 20260831133550 | 75 | 126 | 7.0 | 11.0 | 0.00 | 0.01 | 0.01 | 64 | 1016.2 |
| 20260831133107 | 74 | 108 | 7.0 | 11.0 | 0.00 | 0.01 | 0.01 | 68 | 1016.2 |
| 20260831132549 | 73 | 96 | 7.0 | 9.0 | 0.00 | 0.01 | 0.01 | 69 | 1016.1 |
| 20260831132049 | 73 | 124 | 6.0 | 8.0 | 0.00 | 0.01 | 0.01 | 71 | 1016.1 |
| 20260831131615 | 72 | 103 | 6.0 | 8.0 | 0.00 | 0.01 | 0.01 | 72 | 1015.9 |
| 20260831131049 | 72 | 113 | 5.0 | 7.0 | 0.00 | 0.01 | 0.01 | 73 | 1015.8 |
| 20260831130548 | 72 | 99 | 4.0 | 6.0 | 0.00 | 0.01 | 0.01 | 74 | 1015.9 |
| 20260831130121 | 72 | 105 | 4.0 | 5.0 | 0.00 | 0.01 | 0.01 | 74 | 1015.8 |
| 20260831125548 | 72 | 94 | 2.0 | 5.0 | 0.00 | 0.01 | 0.01 | 75 | 1016.0 |
| 20260831125049 | 71 | 102 | 3.0 | 5.0 | 0.00 | 0.01 | 0.01 | 76 | 1016.1 |
| 20260831124610 | 71 | 108 | 2.0 | 5.0 | 0.00 | 0.01 | 0.01 | 77 | 1016.1 |
| 20260831124049 | 71 | 108 | 4.0 | 6.0 | 0.00 | 0.01 | 0.01 | 77 | 1016.0 |
| 20260831123548 | 71 | 100 | 4.0 | 6.0 | 0.00 | 0.01 | 0.01 | 78 | 1015.8 |
| 20260831123108 | 71 | 116 | 3.0 | 5.0 | 0.00 | 0.01 | 0.01 | 79 | 1016.0 |
| 20260831122552 | 70 | 96 | 3.0 | 4.0 | 0.00 | 0.01 | 0.01 | 81 | 1015.8 |
| 20260831122049 | 70 | 108 | 2.0 | 4.0 | 0.01 | 0.01 | 0.01 | 81 | 1015.9 |
| 20260831121600 | 70 | 146 | 2.0 | 5.0 | 0.01 | 0.01 | 0.01 | 81 | 1016.0 |
| 20260831121048 | 70 | 120 | 4.0 | 5.0 | 0.01 | 0.01 | 0.01 | 81 | 1015.9 |
| 20260831120549 | 70 | 133 | 4.0 | 5.0 | 0.01 | 0.01 | 0.01 | 80 | 1015.9 |
| 20260831120058 | 71 | 132 | 3.0 | 3.0 | 0.01 | 0.01 | 0.01 | 81 | 1016.0 |
| 20260831115549 | 71 | 109 | 1.0 | 3.0 | 0.01 | 0.01 | 0.01 | 80 | 1016.0 |
| 20260831115047 | 71 | 150 | 1.0 | 3.0 | 0.01 | 0.01 | 0.01 | 79 | 1016.4 |
| 20260831114606 | 71 | 142 | 0.0 | 3.0 | 0.01 | 0.01 | 0.01 | 78 | 1016.3 |
| 20260831114048 | 71 | 160 | 0.0 | 4.0 | 0.01 | 0.01 | 0.01 | 78 | 1016.2 |
| 20260831113549 | 71 | 0 | 2.0 | 4.0 | 0.01 | 0.01 | 0.01 | 78 | 1016.3 |
| 20260831113105 | 71 | 144 | 0.0 | 4.0 | 0.01 | 0.01 | 0.01 | 77 | 1016.1 |
| 20260831112548 | 72 | 141 | 1.0 | 4.0 | 0.01 | 0.01 | 0.01 | 77 | 1016.3 |
| 20260831112050 | 72 | 0 | 0.0 | 3.0 | 0.00 | 0.00 | 0.00 | 75 | 1016.1 |
| 20260831111601 | 72 | 0 | 1.0 | 3.0 | 0.00 | 0.00 | 0.00 | 74 | 1015.9 |
| 20260831111049 | 72 | 93 | 1.0 | 3.0 | 0.00 | 0.00 | 0.00 | 74 | 1016.1 |
| 20260831110552 | 73 | 0 | 0.0 | 3.0 | 0.00 | 0.00 | 0.00 | 73 | 1016.0 |
| 20260831110113 | 73 | 120 | 0.0 | 3.0 | 0.00 | 0.00 | 0.00 | 73 | 1016.3 |
| 20260831105550 | 73 | 0 | 1.0 | 3.0 | 0.00 | 0.00 | 0.00 | 73 | 1016.4 |
| 20260831105050 | 73 | 141 | 2.0 | 3.0 | 0.00 | 0.00 | 0.00 | 73 | 1016.6 |
| 20260831104612 | 73 | 120 | 1.0 | 3.0 | 0.00 | 0.00 | 0.00 | 73 | 1016.6 |
| 20260831104048 | 73 | 0 | 1.0 | 3.0 | 0.00 | 0.00 | 0.00 | 73 | 1016.4 |
| 20260831103548 | 73 | 315 | 1.0 | 3.0 | 0.00 | 0.00 | 0.00 | 72 | 1016.4 |
| 20260831103057 | 73 | 232 | 2.0 | 4.0 | 0.00 | 0.00 | 0.00 | 72 | 1016.5 |
| 20260831102549 | 73 | 219 | 1.0 | 4.0 | 0.00 | 0.00 | 0.00 | 72 | 1016.5 |
| 20260831102049 | 73 | 219 | 3.0 | 4.0 | 0.00 | 0.00 | 0.00 | 73 | 1016.7 |
| 20260831101607 | 73 | 227 | 3.0 | 4.0 | 0.00 | 0.00 | 0.00 | 73 | 1016.6 |
| 20260831101050 | 73 | 216 | 2.0 | 4.0 | 0.00 | 0.00 | 0.00 | 73 | 1016.5 |
| 20260831100547 | 73 | 238 | 2.0 | 4.0 | 0.00 | 0.00 | 0.00 | 73 | 1016.6 |
| 20260831100118 | 74 | 243 | 2.0 | 5.0 | 0.00 | 0.00 | 0.00 | 72 | 1016.7 |
| 20260831095548 | 74 | 277 | 2.0 | 7.0 | 0.00 | 0.00 | 0.00 | 71 | 1016.6 |
| 20260831095051 | 75 | 290 | 4.0 | 7.0 | 0.00 | 0.00 | 0.00 | 69 | 1016.6 |
| 20260831094602 | 75 | 302 | 5.0 | 7.0 | 0.00 | 0.00 | 0.00 | 66 | 1016.2 |
| 20260831094046 | 76 | 288 | 4.0 | 7.0 | 0.00 | 0.00 | 0.00 | 64 | 1016.1 |
| 20260831093548 | 76 | 285 | 0.0 | 5.0 | 0.00 | 0.00 | 0.00 | 60 | 1016.1 |
| 20260831093108 | 76 | 0 | 1.0 | 9.0 | 0.00 | 0.00 | 0.00 | 60 | 1015.8 |
| 20260831092545 | 77 | 269 | 5.0 | 9.0 | 0.00 | 0.00 | 0.00 | 60 | 1016.1 |
| 20260831092049 | 78 | 297 | 4.0 | 10.0 | 0.00 | 0.00 | 0.00 | 58 | 1015.8 |
| 20260831091557 | 78 | 218 | 6.0 | 10.0 | 0.00 | 0.00 | 0.00 | 54 | 1015.7 |
| 20260831091049 | 78 | 188 | 7.0 | 11.0 | 0.00 | 0.00 | 0.00 | 54 | 1015.4 |
| 20260831090547 | 78 | 201 | 6.0 | 11.0 | 0.00 | 0.00 | 0.00 | 53 | 1015.3 |
| 20260831090055 | 78 | 179 | 8.0 | 11.0 | 0.00 | 0.00 | 0.00 | 53 | 1015.2 |
| 20260831085547 | 78 | 176 | 7.0 | 12.0 | 0.00 | 0.00 | 0.00 | 53 | 1015.1 |
| 20260831085047 | 78 | 167 | 8.0 | 12.0 | 0.00 | 0.00 | 0.00 | 53 | 1015.1 |
| 20260831084609 | 78 | 162 | 8.0 | 12.0 | 0.00 | 0.00 | 0.00 | 53 | 1015.0 |
| 20260831084050 | 78 | 182 | 9.0 | 12.0 | 0.00 | 0.00 | 0.00 | 53 | 1014.9 |
| 20260831083548 | 78 | 166 | 9.0 | 12.0 | 0.00 | 0.00 | 0.00 | 52 | 1014.9 |
| 20260831083105 | 78 | 175 | 8.0 | 12.0 | 0.00 | 0.00 | 0.00 | 52 | 1014.8 |
| 20260831082548 | 78 | 192 | 8.0 | 10.0 | 0.00 | 0.00 | 0.00 | 53 | 1014.7 |
| 20260831082048 | 78 | 158 | 7.0 | 9.0 | 0.00 | 0.00 | 0.00 | 53 | 1014.6 |
| 20260831081556 | 77 | 153 | 5.0 | 8.0 | 0.00 | 0.00 | 0.00 | 54 | 1014.7 |
| 20260831081048 | 77 | 195 | 6.0 | 8.0 | 0.00 | 0.00 | 0.00 | 55 | 1014.8 |
| 20260831080548 | 76 | 159 | 4.0 | 7.0 | 0.00 | 0.00 | 0.00 | 56 | 1015.0 |
| 20260831080108 | 76 | 201 | 3.0 | 5.0 | 0.00 | 0.00 | 0.00 | 56 | 1014.9 |
| 20260831075548 | 75 | 157 | 2.0 | 4.0 | 0.00 | 0.00 | 0.00 | 56 | 1014.9 |
| 20260831075046 | 76 | 188 | 2.0 | 4.0 | 0.00 | 0.00 | 0.00 | 56 | 1014.9 |
| 20260831074600 | 76 | 199 | 1.0 | 3.0 | 0.00 | 0.00 | 0.00 | 55 | 1014.9 |
| 20260831074048 | 76 | 191 | 2.0 | 4.0 | 0.00 | 0.00 | 0.00 | 55 | 1014.9 |
| 20260831073547 | 76 | 168 | 3.0 | 5.0 | 0.00 | 0.00 | 0.00 | 56 | 1014.9 |
| 20260831073104 | 76 | 149 | 3.0 | 5.0 | 0.00 | 0.00 | 0.00 | 56 | 1015.0 |
| 20260831072547 | 76 | 166 | 4.0 | 6.0 | 0.00 | 0.00 | 0.00 | 56 | 1015.1 |
| 20260831072048 | 76 | 153 | 4.0 | 6.0 | 0.00 | 0.00 | 0.00 | 56 | 1015.1 |
| 20260831071602 | 77 | 151 | 5.0 | 6.0 | 0.00 | 0.00 | 0.00 | 55 | 1015.0 |
| 20260831071047 | 77 | 143 | 4.0 | 6.0 | 0.00 | 0.00 | 0.00 | 55 | 1015.0 |
| 20260831070548 | 77 | 134 | 4.0 | 6.0 | 0.00 | 0.00 | 0.00 | 55 | 1015.0 |
| 20260831070115 | 77 | 133 | 4.0 | 6.0 | 0.00 | 0.00 | 0.00 | 55 | 1015.0 |
| 20260831065550 | 76 | 128 | 5.0 | 6.0 | 0.00 | 0.00 | 0.00 | 56 | 1015.1 |
| 20260831065048 | 77 | 135 | 4.0 | 4.0 | 0.00 | 0.00 | 0.00 | 54 | 1015.2 |
| 20260831064604 | 77 | 132 | 3.0 | 3.0 | 0.00 | 0.00 | 0.00 | 53 | 1015.2 |
| 20260831064044 | 78 | 0 | 0.0 | 2.0 | 0.00 | 0.00 | 0.00 | 51 | 1015.2 |
| 20260831063547 | 79 | 114 | 0.0 | 1.0 | 0.00 | 0.00 | 0.00 | 52 | 1015.3 |
| 20260831063055 | 80 | 0 | 0.0 | 0.0 | 0.00 | 0.00 | 0.00 | 50 | 1015.3 |
| 20260831062548 | 80 | 0 | 0.0 | 0.0 | 0.00 | 0.00 | 0.00 | 50 | 1015.4 |
| 20260831062049 | 81 | 0 | 0.0 | 0.0 | 0.00 | 0.00 | 0.00 | 49 | 1015.4 |
| 20260831061555 | 81 | 0 | 0.0 | 1.0 | 0.00 | 0.00 | 0.00 | 49 | 1015.3 |
| 20260831061048 | 81 | 0 | 0.0 | 2.0 | 0.00 | 0.00 | 0.00 | 49 | 1015.4 |
| 20260831060549 | 82 | 274 | 1.0 | 2.0 | 0.00 | 0.00 | 0.00 | 48 | 1015.4 |
| 20260831060107 | 82 | 274 | 2.0 | 3.0 | 0.00 | 0.00 | 0.00 | 48 | 1015.4 |
| 20260831055547 | 83 | 251 | 2.0 | 5.0 | 0.00 | 0.00 | 0.00 | 47 | 1015.3 |
| 20260831055044 | 83 | 0 | 2.0 | 7.0 | 0.00 | 0.00 | 0.00 | 46 | 1015.2 |
| 20260831054600 | 83 | 193 | 2.0 | 7.0 | 0.00 | 0.00 | 0.00 | 46 | 1015.3 |
| 20260831054048 | 83 | 265 | 4.0 | 9.0 | 0.00 | 0.00 | 0.00 | 46 | 1015.5 |
| 20260831053548 | 83 | 287 | 6.0 | 9.0 | 0.00 | 0.00 | 0.00 | 46 | 1015.6 |
| 20260831053104 | 83 | 224 | 5.0 | 9.0 | 0.00 | 0.00 | 0.00 | 46 | 1015.2 |
| 20260831052550 | 82 | 135 | 4.0 | 10.0 | 0.00 | 0.00 | 0.00 | 47 | 1015.1 |
| 20260831052045 | 82 | 0 | 1.0 | 12.0 | 0.00 | 0.00 | 0.00 | 47 | 1015.3 |
| 20260831051559 | 82 | 314 | 8.0 | 12.0 | 0.00 | 0.00 | 0.00 | 48 | 1015.5 |
| 20260831051047 | 82 | 307 | 5.0 | 12.0 | 0.00 | 0.00 | 0.00 | 48 | 1015.4 |
| 20260831050545 | 82 | 160 | 5.0 | 8.0 | 0.00 | 0.00 | 0.00 | 48 | 1014.7 |
| 20260831050058 | 82 | 189 | 6.0 | 10.0 | 0.00 | 0.00 | 0.00 | 48 | 1014.4 |